User: anonymous   Login
Location: Carrières
(48.9495°N, 2.0407°E)
Time: 07:51:43
(UTC+00:00)
Language:

Cosmos 1328 - Orbit

View from above orbital plane
View from above orbital plane
View from above satellite
View from above satellite

Ground track
Ground track

The orbit data is extracted from the following two-line orbital elements,

1 12987U 81117A   23151.82945954  .00005620  00000-0  32050-3 0  9999
2 12987  82.4996 280.5685 0019415 121.3630 238.9503 15.12419300260023
Epoch (UTC): 31 May 2023 19:54:25
Eccentricity: 0.0019415
inclination: 82.4996°
perigee height: 515 km
apogee height: 542 km
right ascension of ascending node: 280.5685°
argument of perigee: 121.3630°
revolutions per day: 15.12419300
mean anomaly at epoch: 238.9503°
orbit number at epoch: 26002

The dashed part of the orbit path shows where the satellite is in the earth's shadow,  

DLR